TimeMST,TemperatureF,Dew PointF,Humidity,Sea Level PressureIn,VisibilityMPH,Wind Direction,Wind SpeedMPH,Gust SpeedMPH,PrecipitationIn,Events,Conditions,WindDirDegrees,DateUTC
12:51 AM,68.0,30.9,25,29.83,10.0,Calm,Calm,-,N/A,,Clear,0,2014-04-28 07:51:00
1:51 AM,70.0,30.0,23,29.83,10.0,West,8.1,-,N/A,,Clear,280,2014-04-28 08:51:00
2:51 AM,66.0,30.9,27,29.82,10.0,Calm,Calm,-,N/A,,Clear,0,2014-04-28 09:51:00
3:51 AM,64.0,33.1,31,29.83,10.0,Calm,Calm,-,N/A,,Clear,0,2014-04-28 10:51:00
4:51 AM,63.0,32.0,31,29.83,10.0,East,6.9,-,N/A,,Partly Cloudy,90,2014-04-28 11:51:00
5:51 AM,60.1,33.1,36,29.86,10.0,East,6.9,-,N/A,,Partly Cloudy,90,2014-04-28 12:51:00
6:51 AM,62.6,32.0,32,29.92,10.0,ESE,6.9,-,N/A,,Partly Cloudy,110,2014-04-28 13:51:00
7:51 AM,66.0,32.0,28,29.90,10.0,East,4.6,-,N/A,,Partly Cloudy,80,2014-04-28 14:51:00
8:51 AM,70.0,30.9,24,29.92,10.0,Calm,Calm,-,N/A,,Partly Cloudy,0,2014-04-28 15:51:00
9:51 AM,73.9,32.0,21,29.91,10.0,South,3.5,-,N/A,,Partly Cloudy,170,2014-04-28 16:51:00
10:51 AM,75.9,30.0,19,29.90,10.0,North,3.5,-,N/A,,Partly Cloudy,360,2014-04-28 17:51:00
11:51 AM,79.0,30.0,17,29.88,10.0,Calm,Calm,-,N/A,,Partly Cloudy,0,2014-04-28 18:51:00
12:51 PM,81.0,28.9,15,29.86,10.0,Variable,6.9,-,N/A,,Partly Cloudy,0,2014-04-28 19:51:00
1:51 PM,82.9,28.0,14,29.83,10.0,West,9.2,17.3,N/A,,Partly Cloudy,270,2014-04-28 20:51:00
2:51 PM,84.0,27.0,13,29.81,10.0,WNW,10.4,19.6,N/A,,Partly Cloudy,290,2014-04-28 21:51:00
3:51 PM,86.0,26.6,12,29.83,10.0,WSW,15.0,19.6,N/A,,Clear,240,2014-04-28 22:51:00
4:51 PM,87.1,25.0,10,29.76,10.0,WSW,15.0,23.0,N/A,,Clear,250,2014-04-28 23:51:00
5:51 PM,87.1,24.1,10,29.74,10.0,WSW,18.4,26.5,N/A,,Clear,250,2014-04-29 00:51:00
6:51 PM,87.1,23.0,10,29.75,10.0,West,19.6,-,N/A,,Partly Cloudy,270,2014-04-29 01:51:00
7:51 PM,84.2,23.0,11,29.81,10.0,West,15.0,-,N/A,,Clear,280,2014-04-29 02:51:00
8:51 PM,84.0,19.0,9,29.79,10.0,WNW,16.1,-,N/A,,Clear,300,2014-04-29 03:51:00
9:51 PM,82.0,12.9,7,29.82,10.0,NW,10.4,-,N/A,,Clear,310,2014-04-29 04:51:00
10:51 PM,80.1,16.0,9,29.84,10.0,NNW,5.8,-,N/A,,Clear,330,2014-04-29 05:51:00
11:51 PM,78.1,14.0,9,29.86,10.0,North,12.7,-,N/A,,Clear,360,2014-04-29 06:51:00